CW2551 Weather Reports


Display with metric or nautical units.
time (UTC)temp
F
wind
direction
speed
MPH
gust
MPH
rain 1hr
in
rain 24hr
in
rain mn
in
humidity
%
barometer
mb
20260904024104 61 223 0.0 0.0 0.00 0.16 0.03 61 1010.0
20260904024022 61 218 0.0 0.0 0.00 0.16 0.03 61 1010.0
20260904023604 61 218 0.0 0.0 0.00 0.16 0.03 61 1010.0
20260904023023 61 211 0.0 0.0 0.00 0.16 0.03 62 1009.9
20260904022603 61 211 0.0 0.0 0.00 0.16 0.03 62 1009.9
20260904022103 61 243 0.0 0.0 0.00 0.16 0.03 63 1009.9
20260904022022 62 233 0.0 3.0 0.00 0.17 0.03 63 1009.8
20260904021103 62 247 0.0 0.0 0.00 0.17 0.03 61 1009.8
20260904021021 62 252 0.0 0.0 0.00 0.18 0.03 61 1009.8
20260904020603 62 252 0.0 0.0 0.00 0.18 0.03 61 1009.8
20260904020104 62 252 0.0 0.0 0.00 0.18 0.03 57 1009.8
20260904020024 62 253 0.0 0.0 0.00 0.18 0.03 59 1009.8
20260904015603 62 253 0.0 0.0 0.00 0.18 0.03 59 1009.8
20260904015103 63 254 0.0 2.0 0.00 0.18 0.03 59 1009.8
20260904015021 63 273 0.0 3.0 0.00 0.18 0.03 59 1009.9
20260904014604 63 273 0.0 3.0 0.00 0.18 0.03 59 1009.9
20260904014103 63 262 0.0 0.0 0.00 0.18 0.03 58 1009.9
20260904014022 63 261 0.0 0.0 0.00 0.18 0.03 57 1009.9
20260904013604 63 261 0.0 0.0 0.00 0.18 0.03 57 1009.9
20260904013104 63 214 0.0 1.0 0.00 0.18 0.03 57 1009.9
20260904013024 64 228 0.0 2.0 0.00 0.18 0.03 58 1009.9
20260904012604 64 228 0.0 2.0 0.00 0.18 0.03 58 1009.9
20260904012104 64 229 0.0 0.0 0.00 0.18 0.03 60 1009.8
20260904012022 64 223 0.0 2.0 0.00 0.19 0.03 57 1009.8
20260904011104 64 231 1.0 5.0 0.00 0.19 0.03 53 1009.7
20260904011021 64 231 2.0 7.0 0.00 0.19 0.03 54 1009.7
20260904010604 64 231 2.0 7.0 0.00 0.19 0.03 54 1009.7
20260904010104 64 235 1.0 7.0 0.00 0.19 0.03 54 1009.7
20260904010023 64 224 2.0 7.0 0.00 0.19 0.03 53 1009.7
20260904005603 64 224 2.0 7.0 0.00 0.19 0.03 53 1009.7
20260904005104 64 224 2.0 3.0 0.00 0.20 0.03 55 1009.7
20260904005022 64 216 0.0 7.0 0.00 0.21 0.03 55 1009.6
20260904004604 64 216 0.0 7.0 0.00 0.21 0.03 55 1009.6
20260904004103 64 245 3.0 8.0 0.00 0.21 0.03 55 1009.7
20260904004022 64 228 1.0 3.0 0.00 0.22 0.03 56 1009.7
20260904003604 64 228 1.0 3.0 0.00 0.22 0.03 56 1009.7
20260904003104 64 228 0.0 3.0 0.00 0.23 0.03 58 1009.7
20260904003024 63 296 0.0 2.0 0.00 0.24 0.03 58 1009.6
20260904002604 63 296 0.0 2.0 0.00 0.24 0.03 58 1009.6
20260904002104 63 312 0.0 0.0 0.00 0.25 0.03 65 1009.7
20260904002021 64 313 0.0 1.0 0.00 0.26 0.03 62 1009.7
20260904001604 64 313 0.0 1.0 0.00 0.26 0.03 62 1009.7
20260904001104 64 221 0.0 2.0 0.00 0.27 0.03 60 1009.8
20260904001022 64 221 1.0 3.0 0.00 0.28 0.03 58 1009.8
20260904000604 64 221 1.0 3.0 0.00 0.28 0.03 58 1009.8
20260904000104 64 223 0.0 6.0 0.00 0.29 0.03 59 1009.8
20260904000023 64 254 2.0 6.0 0.00 0.29 0.03 60 1009.9
20260903235604 64 254 2.0 6.0 0.00 0.29 0.03 60 1009.9
20260903235104 64 197 1.0 3.0 0.00 0.30 0.03 60 1009.9
20260903234104 64 126 1.0 3.0 0.00 0.32 0.03 63 1009.9
20260903233604 63 91 3.0 7.0 0.00 0.33 0.03 64 1010.0
20260903233104 63 116 3.0 7.0 0.00 0.34 0.03 66 1010.1
20260903233024 63 74 3.0 8.0 0.00 0.35 0.03 67 1010.1
20260903232604 63 74 3.0 8.0 0.00 0.35 0.03 67 1010.1
20260903232104 63 131 3.0 8.0 0.00 0.36 0.03 66 1010.3
20260903231604 63 114 2.0 5.0 0.00 0.38 0.03 67 1010.4
20260903231104 63 152 2.0 5.0 0.00 0.39 0.03 66 1010.4
20260903231022 63 147 1.0 7.0 0.00 0.40 0.03 68 1010.4
20260903230604 63 147 1.0 7.0 0.00 0.40 0.03 68 1010.4
20260903230103 63 150 0.0 7.0 0.00 0.41 0.03 67 1010.4
20260903230023 63 121 3.0 8.0 0.00 0.42 0.03 67 1010.5
20260903225103 63 138 1.0 5.0 0.00 0.43 0.03 67 1010.6
20260903224603 63 127 3.0 7.0 0.00 0.43 0.03 66 1010.4
20260903224103 63 131 1.0 5.0 0.00 0.44 0.03 68 1010.5
20260903224023 62 152 1.0 3.0 0.00 0.44 0.03 69 1010.5
20260903223604 62 152 1.0 3.0 0.00 0.44 0.03 69 1010.5
20260903223104 62 158 0.0 0.0 0.00 0.45 0.03 72 1010.7
20260903223024 62 159 0.0 2.0 0.00 0.45 0.03 72 1010.7
20260903222603 62 159 0.0 2.0 0.00 0.45 0.03 72 1010.7
20260903222021 62 113 0.0 2.0 0.00 0.45 0.03 70 1010.8
20260903221104 61 99 0.0 3.0 0.00 0.45 0.03 71 1010.8
20260903221022 61 128 3.0 8.0 0.00 0.46 0.03 73 1010.6
20260903220604 61 128 3.0 8.0 0.00 0.46 0.03 73 1010.6
20260903220104 60 94 0.0 3.0 0.00 0.47 0.03 74 1010.8
20260903220023 60 71 1.0 3.0 0.00 0.47 0.03 75 1010.9
20260903215603 60 71 1.0 3.0 0.00 0.47 0.03 75 1010.9
20260903215103 60 338 0.0 0.0 0.00 0.47 0.03 76 1011.0
20260903215022 60 338 0.0 0.0 0.00 0.48 0.03 77 1011.0
20260903214604 60 338 0.0 0.0 0.00 0.48 0.03 77 1011.0
20260903214104 60 337 0.0 0.0 0.00 0.49 0.03 77 1011.1
20260903214022 60 336 0.0 0.0 0.00 0.50 0.03 77 1011.2
20260903213604 60 336 0.0 0.0 0.00 0.50 0.03 77 1011.2
20260903213024 60 345 0.0 0.0 0.00 0.50 0.03 77 1011.1
20260903212604 60 345 0.0 0.0 0.00 0.50 0.03 77 1011.1
20260903212021 60 5 0.0 0.0 0.00 0.51 0.03 77 1011.0
20260903211603 60 5 0.0 0.0 0.00 0.51 0.03 77 1011.0
20260903211104 60 29 0.0 0.0 0.00 0.52 0.03 78 1011.1
20260903211022 60 32 0.0 3.0 0.00 0.52 0.03 78 1011.2
20260903210104 60 17 0.0 0.0 0.00 0.53 0.03 79 1011.2
20260903210023 60 40 0.0 0.0 0.00 0.54 0.03 80 1011.1
20260903205603 60 40 0.0 0.0 0.00 0.54 0.03 80 1011.1
20260903205104 60 40 0.0 2.0 0.00 0.55 0.03 80 1011.0
20260903205022 60 347 0.0 0.0 0.00 0.55 0.03 81 1011.0
20260903204105 60 349 0.0 0.0 0.00 0.56 0.03 82 1011.1
20260903204021 60 346 0.0 0.0 0.00 0.56 0.03 83 1011.1
20260903203604 60 346 0.0 0.0 0.00 0.56 0.03 83 1011.1
20260903203103 59 348 0.0 5.0 0.00 0.56 0.03 83 1011.1
20260903203024 59 355 0.0 0.0 0.00 0.56 0.03 83 1011.1
20260903202604 59 355 0.0 0.0 0.00 0.56 0.03 83 1011.1
20260903202104 59 355 0.0 0.0 0.00 0.57 0.03 84 1011.1
20260903202022 59 341 0.0 0.0 0.00 0.58 0.03 84 1011.1
20260903201604 59 341 0.0 0.0 0.00 0.58 0.03 84 1011.1
20260903201104 59 341 0.0 0.0 0.00 0.58 0.03 84 1011.2
20260903201022 59 341 0.0 0.0 0.00 0.58 0.03 84 1011.2
20260903195604 59 335 0.0 0.0 0.00 0.58 0.03 84 1011.3
20260903195104 59 351 1.0 2.0 0.00 0.59 0.03 85 1011.3
20260903195021 59 350 0.0 0.0 0.00 0.59 0.03 85 1011.3
20260903194603 59 350 0.0 0.0 0.00 0.59 0.03 85 1011.3
20260903193603 59 355 0.0 0.0 0.00 0.59 0.03 85 1011.5
20260903193104 59 355 0.0 0.0 0.00 0.59 0.03 85 1011.5
20260903192603 59 354 0.0 0.0 0.00 0.59 0.03 84 1011.5
20260903192103 59 351 0.0 0.0 0.00 0.59 0.03 85 1011.5
20260903192021 59 351 0.0 0.0 0.00 0.59 0.03 85 1011.6
20260903191604 59 351 0.0 0.0 0.00 0.59 0.03 85 1011.6
20260903191104 59 355 0.0 0.0 0.00 0.59 0.03 85 1011.5
20260903191022 59 354 1.0 3.0 0.00 0.59 0.03 84 1011.6
20260903190604 59 354 1.0 3.0 0.00 0.59 0.03 84 1011.6
20260903190104 59 132 0.0 0.0 0.00 0.60 0.03 84 1011.6
20260903190022 59 135 0.0 0.0 0.00 0.60 0.03 84 1011.7
20260903185604 59 135 0.0 0.0 0.00 0.60 0.03 84 1011.7
20260903185103 59 135 0.0 0.0 0.00 0.60 0.03 83 1011.7
20260903185021 58 135 0.0 0.0 0.00 0.60 0.03 83 1011.7
20260903184603 58 135 0.0 0.0 0.00 0.60 0.03 83 1011.7
20260903184022 58 135 0.0 0.0 0.00 0.61 0.03 85 1011.7
20260903183604 58 135 0.0 0.0 0.00 0.61 0.03 85 1011.7
20260903183103 58 135 0.0 0.0 0.00 0.61 0.03 86 1011.7
20260903183024 58 135 0.0 0.0 0.00 0.61 0.03 87 1011.7
20260903182021 58 144 0.0 2.0 0.00 0.61 0.03 88 1011.6
20260903181604 58 144 0.0 2.0 0.00 0.61 0.03 88 1011.6
20260903181104 58 145 0.0 0.0 0.00 0.61 0.03 89 1011.6
20260903181021 57 145 0.0 0.0 0.00 0.61 0.03 89 1011.6
20260903180604 57 145 0.0 0.0 0.00 0.61 0.03 89 1011.6
20260903180104 57 145 0.0 0.0 0.00 0.61 0.03 89 1011.6
20260903180024 57 145 0.0 0.0 0.00 0.61 0.03 90 1011.6
20260903175604 57 145 0.0 0.0 0.00 0.61 0.03 90 1011.6
20260903175103 57 145 0.0 0.0 0.00 0.61 0.03 90 1011.6
20260903174603 57 145 0.0 0.0 0.00 0.61 0.03 91 1011.6
20260903174104 56 145 0.0 0.0 0.00 0.62 0.03 91 1011.5
20260903173604 56 145 0.0 3.0 0.00 0.62 0.03 91 1011.5
20260903173024 56 92 0.0 0.0 0.00 0.62 0.03 92 1011.6
20260903172604 56 92 0.0 0.0 0.00 0.62 0.03 92 1011.6
20260903172104 56 66 0.0 0.0 0.00 0.62 0.03 92 1011.7
20260903172022 56 64 0.0 1.0 0.00 0.63 0.03 92 1011.8
20260903171103 55 55 0.0 0.0 0.00 0.63 0.03 93 1011.8
20260903171021 55 54 0.0 1.0 0.00 0.63 0.03 93 1011.9
20260903170604 55 54 0.0 1.0 0.00 0.63 0.03 93 1011.9
20260903165604 55 46 0.0 0.0 0.00 0.63 0.03 93 1012.1
20260903164604 55 46 0.0 0.0 0.00 0.64 0.03 93 1012.1
20260903164103 55 46 0.0 0.0 0.00 0.64 0.03 93 1012.1
20260903164023 55 46 0.0 0.0 0.00 0.64 0.03 93 1012.2
20260903163604 55 46 0.0 0.0 0.00 0.64 0.03 93 1012.2
20260903163103 55 47 0.0 0.0 0.00 0.64 0.03 93 1012.2
20260903163024 55 49 0.0 0.0 0.00 0.65 0.03 93 1012.2
20260903162603 55 49 0.0 0.0 0.00 0.65 0.03 93 1012.2
20260903162103 55 49 0.0 0.0 0.00 0.65 0.03 93 1012.3
20260903162023 55 50 0.0 0.0 0.00 0.65 0.03 93 1012.4
20260903161604 55 50 0.0 0.0 0.00 0.65 0.03 93 1012.4
20260903161104 54 51 0.0 0.0 0.00 0.65 0.03 93 1012.3
20260903161022 54 51 0.0 0.0 0.00 0.65 0.03 93 1012.3
20260903160604 54 51 0.0 0.0 0.00 0.65 0.03 93 1012.3
20260903160104 54 51 0.0 0.0 0.00 0.65 0.03 93 1012.4
20260903160024 54 52 0.0 0.0 0.00 0.65 0.03 93 1012.4
20260903155604 54 52 0.0 0.0 0.00 0.65 0.03 93 1012.4
20260903155021 54 53 0.0 0.0 0.00 0.65 0.03 93 1012.4
20260903154604 54 53 0.0 0.0 0.00 0.65 0.03 93 1012.4
20260903154104 54 53 0.0 0.0 0.00 0.65 0.03 93 1012.4
20260903153603 54 53 0.0 0.0 0.00 0.65 0.03 93 1012.3
20260903153104 54 53 0.0 0.0 0.00 0.65 0.03 93 1012.4
20260903153024 54 53 0.0 0.0 0.00 0.65 0.03 93 1012.4
20260903152604 54 53 0.0 0.0 0.00 0.65 0.03 93 1012.4
20260903152104 54 53 0.0 0.0 0.00 0.65 0.03 93 1012.4
20260903152022 53 53 0.0 0.0 0.00 0.65 0.03 93 1012.5
20260903151604 53 53 0.0 0.0 0.00 0.65 0.03 93 1012.5
20260903151021 53 53 0.0 0.0 0.00 0.65 0.03 93 1012.5
20260903150603 53 53 0.0 0.0 0.00 0.65 0.03 93 1012.5
20260903150104 53 53 0.0 0.0 0.00 0.65 0.03 93 1012.4
20260903150024 53 53 0.0 0.0 0.00 0.65 0.03 93 1012.5
20260903145104 53 53 0.0 0.0 0.00 0.65 0.03 93 1012.5
20260903145021 53 53 0.0 0.0 0.00 0.65 0.03 93 1012.4
20260903144604 53 53 0.0 0.0 0.00 0.65 0.03 93 1012.4
20260903144104 53 53 0.0 0.0 0.00 0.65 0.03 93 1012.3
20260903144022 53 53 0.0 0.0 0.00 0.65 0.03 93 1012.3
20260903143104 53 54 0.0 0.0 0.00 0.65 0.03 93 1012.4
20260903143024 53 55 0.0 0.0 0.00 0.65 0.03 93 1012.3
20260903142604 53 55 0.0 0.0 0.00 0.65 0.03 93 1012.3
20260903142103 53 55 0.0 0.0 0.00 0.65 0.03 93 1012.3
20260903142021 53 55 0.0 0.0 0.00 0.65 0.03 93 1012.2
20260903141604 53 55 0.0 0.0 0.00 0.65 0.03 93 1012.2
20260903141103 53 55 0.0 0.0 0.00 0.65 0.03 93 1012.2
20260903141021 53 55 0.0 0.0 0.00 0.65 0.03 93 1012.2
20260903140603 53 55 0.0 0.0 0.00 0.65 0.03 93 1012.2
20260903140104 53 55 0.0 0.0 0.00 0.65 0.03 93 1012.2
20260903140023 53 55 0.0 0.0 0.00 0.65 0.03 93 1012.1
20260903135103 53 55 0.0 0.0 0.00 0.65 0.03 93 1012.1
20260903135022 53 55 0.0 0.0 0.00 0.65 0.03 93 1011.9
20260903134603 53 55 0.0 0.0 0.00 0.65 0.03 93 1011.9
20260903134103 53 55 0.0 0.0 0.00 0.65 0.03 93 1011.9
20260903134022 53 55 0.0 0.0 0.00 0.65 0.03 93 1011.9
20260903133603 53 55 0.0 0.0 0.00 0.65 0.03 93 1011.9
20260903133104 53 55 0.0 0.0 0.00 0.65 0.03 93 1011.9
20260903133021 53 55 0.0 0.0 0.00 0.65 0.03 93 1011.9
20260903132603 53 55 0.0 0.0 0.00 0.65 0.03 93 1011.9
20260903132104 53 55 0.0 0.0 0.00 0.65 0.03 93 1011.9
20260903132021 53 55 0.0 0.0 0.00 0.65 0.03 93 1011.8
20260903131604 53 55 0.0 0.0 0.00 0.65 0.03 93 1011.8
20260903131103 54 55 0.0 0.0 0.00 0.65 0.03 93 1011.8
20260903131022 54 55 0.0 0.0 0.00 0.65 0.03 93 1011.8
20260903130604 54 55 0.0 0.0 0.00 0.65 0.03 93 1011.8
20260903130104 54 55 0.0 0.0 0.00 0.65 0.03 93 1011.9
20260903130021 54 55 0.0 0.0 0.00 0.65 0.03 93 1011.9
20260903125604 54 55 0.0 0.0 0.00 0.65 0.03 93 1011.9
20260903125104 54 55 0.0 0.0 0.00 0.65 0.03 93 1011.8
20260903125021 54 55 0.0 0.0 0.00 0.65 0.03 93 1011.9
20260903124604 54 55 0.0 0.0 0.00 0.65 0.03 93 1011.9
20260903124104 54 55 0.0 0.0 0.00 0.65 0.03 93 1011.9
20260903124022 54 55 0.0 0.0 0.00 0.65 0.03 93 1012.0
20260903123604 54 55 0.0 0.0 0.00 0.65 0.03 93 1012.0
20260903123104 54 55 0.0 0.0 0.00 0.65 0.03 93 1012.0
20260903123022 54 55 0.0 0.0 0.00 0.65 0.03 93 1012.0
20260903122604 54 55 0.0 0.0 0.00 0.65 0.03 93 1012.0
20260903122104 54 55 0.0 0.0 0.00 0.65 0.03 93 1012.0
20260903122021 54 55 0.0 0.0 0.00 0.65 0.03 93 1012.1
20260903121603 54 55 0.0 0.0 0.00 0.65 0.03 93 1012.1
20260903121104 54 55 0.0 0.0 0.00 0.65 0.03 93 1012.1
20260903121022 54 55 0.0 0.0 0.00 0.65 0.03 93 1012.1
20260903120603 54 55 0.0 0.0 0.00 0.65 0.03 93 1012.1
20260903120021 54 55 0.0 0.0 0.00 0.65 0.03 93 1012.0
20260903115603 54 55 0.0 0.0 0.00 0.65 0.03 93 1012.0
20260903115104 54 55 0.0 0.0 0.00 0.65 0.03 93 1012.2
20260903114604 54 55 0.0 0.0 0.00 0.65 0.03 93 1012.1
20260903114103 54 55 0.0 0.0 0.00 0.65 0.03 92 1012.1
20260903114022 54 55 0.0 0.0 0.00 0.65 0.03 92 1012.3
20260903113604 54 55 0.0 0.0 0.00 0.65 0.03 92 1012.3
20260903113104 54 55 0.0 0.0 0.00 0.65 0.03 92 1012.4
20260903112604 54 55 0.0 0.0 0.00 0.65 0.03 92 1012.3
20260903112104 54 55 0.0 0.0 0.00 0.65 0.03 92 1012.3
20260903112022 54 55 0.0 0.0 0.00 0.65 0.03 92 1012.3
20260903111604 54 55 0.0 0.0 0.00 0.65 0.03 92 1012.3
20260903111103 54 55 0.0 0.0 0.00 0.65 0.03 92 1012.3
20260903111022 54 55 0.0 0.0 0.00 0.65 0.03 92 1012.3
20260903110604 54 55 0.0 0.0 0.00 0.65 0.03 92 1012.3
20260903110104 54 55 0.0 0.0 0.00 0.65 0.03 92 1012.2
20260903110022 54 55 0.0 0.0 0.00 0.65 0.03 92 1012.3
20260903105604 54 55 0.0 0.0 0.00 0.65 0.03 92 1012.3
20260903105104 54 55 0.0 0.0 0.00 0.65 0.03 92 1012.2
20260903105022 54 55 0.0 0.0 0.00 0.65 0.03 92 1012.3
20260903104604 54 55 0.0 0.0 0.00 0.65 0.03 92 1012.3
20260903104103 54 55 0.0 0.0 0.00 0.65 0.03 92 1012.2
20260903104020 54 55 0.0 0.0 0.00 0.65 0.03 92 1012.3
20260903103603 54 55 0.0 0.0 0.00 0.65 0.03 92 1012.3
20260903103104 54 55 0.0 0.0 0.00 0.65 0.03 92 1012.2
20260903103022 54 55 0.0 0.0 0.00 0.65 0.03 92 1012.4
20260903102604 54 55 0.0 0.0 0.00 0.65 0.03 92 1012.4
20260903102104 54 55 0.0 0.0 0.00 0.65 0.03 92 1012.4
20260903102022 54 55 0.0 0.0 0.00 0.65 0.03 92 1012.3
20260903101604 54 55 0.0 0.0 0.00 0.65 0.03 92 1012.3
20260903101104 54 55 0.0 0.0 0.00 0.65 0.03 92 1012.4
20260903101021 54 55 0.0 0.0 0.00 0.65 0.03 92 1012.4
20260903100603 54 55 0.0 0.0 0.00 0.65 0.03 92 1012.4
20260903100021 54 55 0.0 0.0 0.00 0.65 0.03 92 1012.4
20260903095103 54 55 0.0 0.0 0.00 0.65 0.03 92 1012.3
20260903095021 54 55 0.0 0.0 0.00 0.65 0.03 92 1012.4
20260903094603 54 55 0.0 0.0 0.00 0.65 0.03 92 1012.4
20260903094103 54 55 0.0 0.0 0.00 0.65 0.03 92 1012.4
20260903094021 54 55 0.0 0.0 0.00 0.65 0.03 92 1012.5
20260903093604 54 55 0.0 0.0 0.00 0.65 0.03 92 1012.5
20260903093104 54 55 0.0 0.0 0.00 0.65 0.03 92 1012.6
20260903093023 54 55 0.0 0.0 0.00 0.65 0.03 92 1012.6
20260903092604 54 55 0.0 0.0 0.00 0.65 0.03 92 1012.6
20260903092104 54 55 0.0 0.0 0.00 0.65 0.03 92 1012.6
20260903092021 54 55 0.0 0.0 0.00 0.65 0.03 92 1012.6
20260903091603 54 55 0.0 0.0 0.00 0.65 0.03 92 1012.6
20260903091104 54 54 0.0 0.0 0.00 0.65 0.03 92 1012.6
20260903090604 54 54 0.0 0.0 0.00 0.65 0.03 92 1012.6
20260903085604 54 54 0.0 0.0 0.00 0.65 0.03 92 1012.6
20260903085022 54 53 0.0 0.0 0.00 0.65 0.03 92 1012.6
20260903084104 54 51 0.0 0.0 0.01 0.65 0.03 92 1012.6
20260903083603 55 51 0.0 0.0 0.01 0.65 0.03 92 1012.5
20260903083022 55 44 0.0 0.0 0.02 0.65 0.03 92 1012.5
20260903082604 55 44 0.0 0.0 0.02 0.65 0.03 92 1012.5
20260903082104 55 34 0.0 0.0 0.02 0.65 0.03 92 1012.5
20260903082021 55 34 0.0 0.0 0.03 0.65 0.03 92 1012.5
20260903081604 55 34 0.0 0.0 0.03 0.65 0.03 92 1012.5
20260903081104 55 34 0.0 0.0 0.03 0.65 0.03 92 1012.4
20260903081022 55 34 0.0 0.0 0.03 0.65 0.03 92 1012.4
20260903080603 55 34 0.0 0.0 0.03 0.65 0.03 92 1012.4
20260903080104 55 32 0.0 0.0 0.03 0.65 0.03 92 1012.5
20260903075103 55 31 0.0 0.0 0.03 0.65 0.03 92 1012.4
20260903075022 55 27 0.0 0.0 0.03 0.65 0.03 92 1012.4
20260903074603 55 27 0.0 0.0 0.03 0.65 0.03 92 1012.4
20260903074104 55 26 0.0 0.0 0.02 0.64 0.02 92 1012.2
20260903074022 55 24 0.0 0.0 0.03 0.64 0.02 91 1012.2
20260903073604 55 24 0.0 0.0 0.03 0.64 0.02 91 1012.2
20260903072603 55 25 0.0 0.0 0.02 0.63 0.01 92 1012.1
20260903072104 55 19 0.0 0.0 0.03 0.63 0.01 92 1011.9
20260903071104 55 24 0.0 1.0 0.02 0.62 0.00 92 1012.1
20260903071022 56 48 0.0 3.0 0.03 0.62 0.00 92 1012.1
20260903070103 56 53 0.0 3.0 0.04 0.62 0.00 92 1012.0
20260903070021 56 19 1.0 5.0 0.05 0.62 0.62 92 1011.9
20260903065104 56 10 0.0 0.0 0.06 0.62 0.62 92 1012.0
20260903065023 56 16 0.0 5.0 0.07 0.62 0.62 92 1011.9
20260903064603 56 16 0.0 5.0 0.07 0.62 0.62 92 1011.9
20260903064103 56 340 2.0 6.0 0.07 0.62 0.62 92 1011.8
20260903064022 57 8 0.0 3.0 0.08 0.62 0.62 93 1011.8
20260903063604 57 8 0.0 3.0 0.08 0.62 0.62 93 1011.8
20260903063022 57 0 0.0 0.0 0.07 0.61 0.61 93 1011.8
20260903062603 57 0 0.0 0.0 0.07 0.61 0.61 93 1011.8
20260903062104 57 0 0.0 0.0 0.06 0.60 0.60 93 1011.9
20260903062022 57 0 0.0 0.0 0.06 0.60 0.60 93 1011.8
20260903061604 57 0 0.0 0.0 0.06 0.60 0.60 93 1011.8
20260903061104 57 0 0.0 0.0 0.06 0.60 0.60 93 1011.9
20260903061022 57 0 0.0 0.0 0.05 0.59 0.59 93 1011.9
20260903060603 57 0 0.0 0.0 0.05 0.59 0.59 93 1011.9
20260903060104 57 0 0.0 0.0 0.04 0.58 0.58 93 1012.0
20260903060022 57 0 0.0 0.0 0.03 0.57 0.57 93 1012.0
20260903055604 57 0 0.0 0.0 0.03 0.57 0.57 93 1012.0
20260903055104 57 0 0.0 0.0 0.02 0.56 0.56 93 1011.9
20260903055022 57 0 0.0 0.0 0.02 0.55 0.55 93 1011.9
20260903054603 57 0 0.0 0.0 0.02 0.55 0.55 93 1011.9
20260903054104 57 0 0.0 0.0 0.02 0.55 0.55 93 1011.9
20260903054022 57 0 0.0 0.0 0.01 0.54 0.54 93 1011.9
20260903053604 57 0 0.0 0.0 0.01 0.54 0.54 93 1011.9
20260903053104 57 0 0.0 0.0 0.01 0.54 0.54 93 1011.9
20260903053022 57 0 0.0 0.0 0.01 0.54 0.54 93 1011.8
20260903052604 57 0 0.0 0.0 0.01 0.54 0.54 93 1011.8
20260903052104 57 0 0.0 0.0 0.01 0.54 0.54 93 1011.9
20260903052021 57 0 0.0 0.0 0.01 0.54 0.54 93 1011.9
20260903051604 57 0 0.0 0.0 0.01 0.54 0.54 93 1011.9
20260903051104 57 0 0.0 0.0 0.01 0.54 0.54 93 1011.9
20260903051022 57 0 0.0 0.0 0.01 0.54 0.54 93 1011.9
20260903050604 57 0 0.0 0.0 0.01 0.54 0.54 93 1011.9
20260903050104 57 0 0.0 0.0 0.02 0.54 0.54 93 1011.8
20260903050021 57 0 0.0 0.0 0.02 0.54 0.54 93 1011.6
20260903045603 57 0 0.0 0.0 0.02 0.54 0.54 93 1011.6
20260903045104 57 0 0.0 0.0 0.02 0.54 0.54 92 1011.7
20260903045021 57 0 0.0 0.0 0.01 0.53 0.53 93 1011.7
20260903044604 57 0 0.0 0.0 0.01 0.53 0.53 93 1011.7
20260903044104 57 0 0.0 0.0 0.01 0.53 0.53 92 1011.5
20260903044022 57 0 0.0 0.0 0.01 0.53 0.53 92 1011.6
20260903043604 57 0 0.0 0.0 0.01 0.53 0.53 92 1011.6
20260903043022 57 0 0.0 0.0 0.01 0.53 0.53 92 1011.7
20260903042603 57 0 0.0 0.0 0.01 0.53 0.53 92 1011.7
20260903042103 57 0 0.0 0.0 0.01 0.53 0.53 92 1011.5
20260903042021 57 0 0.0 0.0 0.01 0.53 0.53 92 1011.6
20260903041604 57 0 0.0 0.0 0.01 0.53 0.53 92 1011.6
20260903041104 57 0 0.0 0.0 0.02 0.53 0.53 92 1011.6
20260903041023 57 0 0.0 0.0 0.02 0.53 0.53 92 1011.4
20260903040604 57 0 0.0 0.0 0.02 0.53 0.53 92 1011.4
20260903040103 57 0 0.0 0.0 0.02 0.52 0.52 92 1011.4
20260903035604 57 0 0.0 0.0 0.02 0.52 0.52 92 1011.5
20260903035104 57 0 0.0 0.0 0.03 0.52 0.52 92 1011.4
20260903035022 57 0 0.0 0.0 0.03 0.52 0.52 92 1011.3
20260903034603 57 0 0.0 0.0 0.03 0.52 0.52 92 1011.3
20260903034103 57 0 0.0 0.0 0.03 0.52 0.52 92 1011.1
20260903034022 57 0 0.0 0.0 0.03 0.52 0.52 92 1010.9
20260903033604 57 0 0.0 0.0 0.03 0.52 0.52 92 1010.9
20260903033104 57 0 0.0 0.0 0.03 0.52 0.52 92 1010.9
20260903033023 57 0 0.0 0.0 0.03 0.52 0.52 92 1010.8
20260903032603 57 0 0.0 0.0 0.03 0.52 0.52 92 1010.8
20260903032104 57 355 0.0 0.0 0.03 0.52 0.52 92 1010.8
20260903032022 57 355 0.0 0.0 0.04 0.52 0.52 92 1010.8
20260903031603 57 355 0.0 0.0 0.04 0.52 0.52 92 1010.8
20260903031104 57 355 0.0 0.0 0.03 0.51 0.51 92 1010.7
20260903031022 57 355 0.0 0.0 0.04 0.51 0.51 92 1010.7
20260903030604 57 355 0.0 0.0 0.04 0.51 0.51 92 1010.7
20260903030022 57 355 0.0 0.0 0.03 0.50 0.50 92 1010.6
20260903025604 57 355 0.0 0.0 0.03 0.50 0.50 92 1010.6
20260903025103 57 355 0.0 0.0 0.02 0.49 0.49 92 1010.7
20260903025021 58 355 0.0 0.0 0.02 0.49 0.49 92 1010.6
20260903024604 58 355 0.0 0.0 0.02 0.49 0.49 92 1010.6